WESTFORD NEEDLES, 2364

Orbit data source: Space-Track

WESTFORD NEEDLES, 2364 is space debris in LEO originally from a launch on Thu, 09 May 1963 UTC launched from the Air Force Western Test Range (AFWTR). Debris objects in space refer to the collection of defunct objects orbiting the Earth. Examples of debris include non-operational satellites, rocket bodies, and fragments generated from explosions, collisions, or faulty payload assembly.

Loading next visibility...
Identifier
2364, 1963-014P
Orbit
LEO
Country
Flag of USUS
Related business
Manufacturer
Unknown
Mission
Spacecraft
Bus & Motor
Unknown
Mass
Unknown
Launch date (UTC)
1963-05-09 (63 years ago)
Launch vehicle
Unknown
Launch site
Air Force Western Test Range (AFWTR)
Object type
Payload
Rocket body
Debris
Shape & HBR
Unknown shape, 0.4 m
Radar Cross Section
Medium (>0.1 m² and <1 m²)

Expand to show TLE details & history
Last TLE update: 1 day ago

TLE from 1 day ago
0 WESTFORD NEEDLES
1 02364U 63014P   26124.41753790  .00000064  00000-0  22576-1 0  9993
2 02364  87.5699 285.8127 0617372  83.8659 283.2140  8.67358755992171
Epoch: 2026-05-04T10:01Z
TLE epoch observation values (Epoch: 2026-05-04T10:01:15.274Z)
Latitude
-0.00003°
Longitude
-86.80797°
Altitude
3,525.876 km
Speed
6.378 km/s
True Right ascension
19h 03m 15s
True Declination
0° 00' 00"
Sunlit
Object was in daylight at epoch
Visualization orbit readout
Latitude
Unknown
Longitude
Unknown
Altitude
Unknown
Speed
Unknown
Apparent Right ascension
Unknown
Apparent Declination
Unknown
Sunlit
N/A
Visualization observer readout
Local Sidereal Time
22:19:31
Azimuth
Unknown
Elevation
Unknown
Doppler factor
Unknown
Orbital elements
Apogee altitude
4,243.491 km
Perigee altitude
3,008.252 km
Semi-major axis
10,004.009 km
Eccentricity
0.06174
Inclination
87.5699°
RAAN
285.8127°
Arg. of periapsis
83.8659°
True anomaly
276.22061°
Mean anomaly
283.214°
Eccentric anomaly
279.72758°
Mean motion
2.16911 °/min
Orbital period
165.97 mins
BSTAR
0.022576
Loading maneuver chart data...
Computing Atmospheric mass density...

Documentation

Showing up to 5 results
|